CW5917 Weather Reports


Display with metric or nautical units.
time (UTC)temp
F
wind
direction
speed
MPH
gust
MPH
rain 1hr
in
rain 24hr
in
rain mn
in
humidity
%
barometer
mb
20260504202026 78 241 13.0 21.0 0.00 0.00 0.00 33 997.6
20260504201545 78 263 13.0 23.0 0.00 0.00 0.00 33 997.6
20260504201035 79 250 14.0 28.0 0.00 0.00 0.00 32 997.7
20260504200558 79 241 18.0 28.0 0.00 0.00 0.00 32 997.8
20260504200023 80 240 20.0 29.0 0.00 0.00 0.00 30 997.7
20260504195533 80 229 17.0 29.0 0.00 0.00 0.00 30 997.8
20260504195027 80 246 14.0 29.0 0.00 0.00 0.00 31 997.7
20260504194535 80 240 17.0 30.0 0.00 0.00 0.00 31 997.8
20260504193555 80 236 14.0 27.0 0.00 0.00 0.00 32 998.0
20260504193033 80 230 16.0 27.0 0.00 0.00 0.00 31 997.9
20260504192528 80 221 16.0 28.0 0.00 0.00 0.00 31 998.0
20260504192041 80 242 20.0 29.0 0.00 0.00 0.00 30 997.9
20260504191536 80 234 19.0 29.0 0.00 0.00 0.00 32 998.1
20260504191100 79 246 16.0 26.0 0.00 0.00 0.00 31 998.1
20260504190525 79 228 19.0 26.0 0.00 0.00 0.00 32 998.2
20260504190020 79 271 14.0 24.0 0.00 0.00 0.00 32 998.3
20260504185522 79 237 15.0 24.0 0.00 0.00 0.00 31 998.3
20260504185033 78 300 15.0 29.0 0.00 0.00 0.00 32 998.3
20260504184532 78 221 21.0 32.0 0.00 0.00 0.00 31 998.4
20260504184028 79 228 18.0 32.0 0.00 0.00 0.00 30 998.5
20260504183521 78 255 12.0 26.0 0.00 0.00 0.00 32 998.4
20260504183027 78 223 15.0 28.0 0.00 0.00 0.00 31 998.3
20260504182543 78 222 18.0 28.0 0.00 0.00 0.00 31 998.4
20260504182039 78 200 20.0 31.0 0.00 0.00 0.00 29 998.4
20260504181538 78 301 15.0 25.0 0.00 0.00 0.00 32 998.4
20260504181022 77 242 14.0 27.0 0.00 0.00 0.00 33 998.4
20260504180536 75 193 15.0 27.0 0.00 0.00 0.00 35 998.5
20260504180025 75 223 16.0 31.0 0.00 0.00 0.00 33 998.4
20260504175525 76 246 18.0 31.0 0.00 0.00 0.00 32 998.4
20260504175020 77 214 21.0 31.0 0.00 0.00 0.00 30 998.5
20260504174530 78 230 20.0 30.0 0.00 0.00 0.00 30 998.4
20260504174039 77 226 19.0 28.0 0.00 0.00 0.00 30 998.4
20260504173554 77 192 17.0 28.0 0.00 0.00 0.00 31 998.6
20260504173028 77 219 20.0 28.0 0.00 0.00 0.00 29 998.4
20260504172522 77 242 15.0 24.0 0.00 0.00 0.00 31 998.5
20260504172022 77 226 16.0 27.0 0.00 0.00 0.00 30 998.5
20260504171545 76 227 22.0 27.0 0.00 0.00 0.00 30 998.4
20260504171036 77 221 21.0 29.0 0.00 0.00 0.00 30 998.6
20260504170548 77 227 18.0 30.0 0.00 0.00 0.00 33 998.6
20260504151022 71 215 17.0 22.0 0.00 0.00 0.00 34 1000.3
20260504150518 70 216 13.0 25.0 0.00 0.00 0.00 36 1000.5
20260504141036 66 234 12.0 17.0 0.00 0.01 0.00 41 1001.2
20260504140518 65 219 12.0 16.0 0.00 0.01 0.00 42 1001.3
20260504130541 56 236 8.0 14.0 0.00 0.02 0.00 57 1001.9
20260504110526 49 223 4.0 8.0 0.00 0.02 0.00 62 1002.1
20260504100519 51 227 5.0 7.0 0.00 0.02 0.00 59 1002.4
20260504081553 51 209 6.0 7.0 0.00 0.02 0.00 61 1003.4
20260504081027 51 218 5.0 7.0 0.00 0.02 0.00 61 1003.5
20260504080518 51 221 6.0 7.0 0.00 0.02 0.00 61 1003.5
20260504045529 55 227 4.0 6.0 0.00 0.02 0.02 55 1005.3
20260504045043 55 227 3.0 5.0 0.00 0.02 0.02 55 1005.3
20260504044021 56 227 3.0 4.0 0.00 0.02 0.02 54 1005.4
20260504043519 56 227 3.0 4.0 0.00 0.02 0.02 53 1005.4
20260504043032 56 227 3.0 4.0 0.00 0.02 0.02 53 1005.5
20260504042525 56 227 3.0 5.0 0.00 0.02 0.02 53 1005.3
20260504042035 57 227 4.0 5.0 0.00 0.02 0.02 52 1005.3
20260504041520 57 227 3.0 4.0 0.00 0.02 0.02 52 1005.3
20260504041051 58 252 3.0 3.0 0.00 0.02 0.02 51 1005.4
20260504040520 58 252 1.0 2.0 0.00 0.02 0.02 49 1005.4
20260504040030 58 252 1.0 2.0 0.00 0.02 0.02 49 1005.4
20260504035541 59 252 1.0 3.0 0.00 0.02 0.02 49 1005.4
20260504035020 59 252 2.0 3.0 0.00 0.02 0.02 49 1005.4
20260504034520 59 242 2.0 4.0 0.00 0.02 0.02 49 1005.3
20260504034031 60 242 2.0 4.0 0.00 0.02 0.02 50 1005.5
20260504033540 60 225 3.0 6.0 0.00 0.02 0.02 50 1005.5
20260504033035 60 225 3.0 6.0 0.00 0.02 0.02 49 1005.5
20260504032536 60 254 3.0 6.0 0.00 0.02 0.02 47 1005.5
20260504032018 60 262 3.0 6.0 0.00 0.02 0.02 47 1005.4
20260504031545 60 277 2.0 5.0 0.00 0.02 0.02 47 1005.5
20260504031052 60 268 3.0 5.0 0.00 0.02 0.02 47 1005.5
20260504030519 61 281 3.0 7.0 0.00 0.02 0.02 47 1005.5
20260504030020 61 291 4.0 7.0 0.00 0.02 0.02 47 1005.3
20260504025557 61 262 4.0 6.0 0.00 0.02 0.02 48 1005.3
20260504025026 61 256 3.0 6.0 0.00 0.02 0.02 48 1005.3
20260504024525 61 252 3.0 7.0 0.00 0.02 0.02 48 1005.3
20260504024046 61 261 4.0 7.0 0.00 0.02 0.02 48 1005.3
20260504023520 61 255 4.0 8.0 0.00 0.02 0.02 48 1005.4
20260504023055 61 266 4.0 8.0 0.00 0.02 0.02 48 1005.3
20260504022535 62 273 4.0 8.0 0.00 0.02 0.02 48 1005.3
20260504022051 62 258 3.0 8.0 0.00 0.02 0.02 48 1005.2
20260504021530 62 252 4.0 7.0 0.00 0.02 0.02 49 1005.1
20260504021021 62 249 4.0 7.0 0.00 0.02 0.02 49 1005.1
20260504020532 63 226 3.0 4.0 0.00 0.02 0.02 48 1005.0
20260504020022 63 227 3.0 6.0 0.00 0.02 0.02 48 1004.8
20260504015537 63 226 4.0 6.0 0.00 0.02 0.02 47 1004.8
20260504015018 63 234 5.0 6.0 0.00 0.02 0.02 46 1004.8
20260504014555 64 232 4.0 5.0 0.00 0.02 0.02 46 1004.8
20260504014037 64 234 3.0 4.0 0.00 0.02 0.02 45 1004.7
20260504013529 65 252 2.0 3.0 0.00 0.02 0.02 45 1004.5
20260504013038 65 252 1.0 3.0 0.00 0.02 0.02 44 1004.6
20260504012531 65 252 2.0 5.0 0.00 0.02 0.02 44 1004.5
20260504012038 65 252 3.0 5.0 0.00 0.02 0.02 43 1004.5
20260504011535 66 243 4.0 5.0 0.00 0.02 0.02 43 1004.6
20260504011032 66 247 3.0 4.0 0.00 0.02 0.02 42 1004.6
20260504010524 66 247 3.0 4.0 0.00 0.02 0.02 42 1004.6
20260504010034 67 247 2.0 4.0 0.00 0.02 0.02 41 1004.5
20260504005529 67 247 3.0 4.0 0.00 0.02 0.02 41 1004.5
20260504005018 67 247 2.0 5.0 0.00 0.02 0.02 41 1004.6
20260504004526 67 261 3.0 5.0 0.00 0.02 0.02 41 1004.6
20260504004029 68 245 3.0 7.0 0.00 0.02 0.02 41 1004.5
20260504003530 68 256 3.0 8.0 0.00 0.02 0.02 40 1004.6
20260504003048 68 242 5.0 9.0 0.00 0.02 0.02 40 1004.5
20260504002522 68 259 3.0 12.0 0.00 0.02 0.02 40 1004.5
20260504002025 69 226 5.0 12.0 0.00 0.02 0.02 40 1004.5
20260504001531 69 263 6.0 14.0 0.00 0.02 0.02 40 1004.5
20260504001021 69 244 8.0 14.0 0.00 0.02 0.02 39 1004.4
20260504000528 69 234 7.0 16.0 0.00 0.02 0.02 39 1004.4
20260504000019 70 249 9.0 16.0 0.00 0.02 0.02 38 1004.4
20260503235518 70 235 7.0 15.0 0.00 0.02 0.02 38 1004.4
20260503235018 70 238 7.0 13.0 0.00 0.02 0.02 39 1004.3
20260503234533 70 234 7.0 12.0 0.00 0.02 0.02 38 1004.3
20260503234018 70 216 8.0 18.0 0.00 0.02 0.02 38 1004.3
20260503233530 70 246 8.0 18.0 0.00 0.02 0.02 38 1004.3
20260503233021 70 288 8.0 14.0 0.00 0.02 0.02 39 1004.3
20260503232530 70 241 8.0 14.0 0.00 0.02 0.02 39 1004.5
20260503232018 70 261 8.0 16.0 0.00 0.02 0.02 39 1004.5
20260503231531 70 242 9.0 16.0 0.00 0.02 0.02 39 1004.5
20260503231028 71 244 10.0 14.0 0.00 0.02 0.02 39 1004.5
20260503230525 71 233 7.0 14.0 0.00 0.02 0.02 40 1004.5
20260503230026 71 236 8.0 14.0 0.00 0.02 0.02 39 1004.6
20260503225521 71 290 8.0 15.0 0.00 0.02 0.02 40 1004.6
20260503225033 71 255 8.0 15.0 0.00 0.02 0.02 40 1004.6
20260503224524 71 266 8.0 15.0 0.00 0.02 0.02 40 1004.6
20260503224020 71 234 5.0 19.0 0.00 0.02 0.02 41 1004.6
20260503223534 71 238 14.0 19.0 0.00 0.02 0.02 39 1004.5
20260503223032 71 231 11.0 26.0 0.00 0.02 0.02 40 1004.6
20260503222538 71 224 16.0 26.0 0.00 0.02 0.02 40 1004.5
20260503222033 70 231 11.0 19.0 0.00 0.02 0.02 40 1004.6
20260503221521 70 197 13.0 20.0 0.00 0.02 0.02 40 1004.7
20260503221020 71 229 13.0 16.0 0.00 0.02 0.02 41 1004.6
20260503220550 70 236 9.0 21.0 0.00 0.02 0.02 42 1004.7
20260503220057 71 227 12.0 21.0 0.00 0.02 0.02 41 1004.8
20260503215036 71 240 11.0 19.0 0.00 0.02 0.02 41 1004.8
20260503214518 71 243 10.0 18.0 0.00 0.02 0.02 41 1005.1
20260503214028 71 239 7.0 17.0 0.00 0.02 0.02 41 1004.9
20260503213522 70 263 9.0 18.0 0.00 0.02 0.02 42 1004.9
20260503213036 70 244 9.0 19.0 0.00 0.02 0.02 42 1005.0
20260503212532 70 228 13.0 21.0 0.00 0.02 0.02 41 1005.0
20260503212029 69 265 14.0 24.0 0.00 0.02 0.02 42 1005.0
20260503211531 69 232 13.0 22.0 0.00 0.02 0.02 42 1005.0
20260503211025 69 233 13.0 19.0 0.00 0.02 0.02 42 1005.1
20260503210540 69 282 14.0 21.0 0.00 0.02 0.02 41 1005.1
20260503210042 69 250 11.0 22.0 0.00 0.02 0.02 42 1005.2
20260503205535 69 232 11.0 23.0 0.00 0.02 0.02 43 1005.3
20260503205029 69 221 15.0 23.0 0.00 0.02 0.02 42 1005.3
20260503204533 69 269 11.0 25.0 0.00 0.02 0.02 44 1005.5
20260503204029 69 227 17.0 25.0 0.00 0.02 0.02 42 1005.4
20260503203543 69 232 10.0 24.0 0.00 0.02 0.02 44 1005.6
20260503203031 69 228 16.0 24.0 0.00 0.02 0.02 42 1005.7
20260503202521 69 230 14.0 20.0 0.00 0.02 0.02 41 1005.8